owner,sensor,date,latitude,longitude,vertical_datum,direction_of_sea_water_velocity,sea_water_speed,upward_sea_water_velocity,qcFlag 
TABS,ioos:station:TABS:G:1,1997-11-01T00:00:00Z,29.5500,-93.4666,2.0,328.2754777,7.359653524,-99999.0,'11133222,11111222,99999999' 
TABS,ioos:station:TABS:G:1,1997-11-01T00:30:00Z,29.5500,-93.4666,2.0,313.4521616,7.59002635,-99999.0,'11133222,11111222,99999999' 
TABS,ioos:station:TABS:G:1,1997-11-01T01:00:00Z,29.5500,-93.4666,2.0,314.1400854,7.064792991,-99999.0,'11133222,11111222,99999999' 
TABS,ioos:station:TABS:G:1,1997-11-01T01:30:00Z,29.5500,-93.4666,2.0,325.9208146,6.121258041,-99999.0,'11133222,11111222,99999999' 
TABS,ioos:station:TABS:G:1,1997-11-01T02:00:00Z,29.5500,-93.4666,2.0,308.4913745,7.422971103,-99999.0,'11133222,11111222,99999999' 
TABS,ioos:station:TABS:G:1,1997-11-01T02:30:00Z,29.5500,-93.4666,2.0,343.1616998,6.697141181,-99999.0,'11133222,11111222,99999999' 
TABS,ioos:station:TABS:G:1,1997-11-01T03:00:00Z,29.5500,-93.4666,2.0,331.7722665,6.93473143,-99999.0,'11133222,11111222,99999999' 
TABS,ioos:station:TABS:G:1,1997-11-01T03:30:00Z,29.5500,-93.4666,2.0,331.4224648,5.602570838,-99999.0,'11133222,11111222,99999999' 
TABS,ioos:station:TABS:G:1,1997-11-01T04:00:00Z,29.5500,-93.4666,2.0,324.6161201,6.942333902,-99999.0,'11133222,11111222,99999999' 
TABS,ioos:station:TABS:G:1,1997-11-01T04:30:00Z,29.5500,-93.4666,2.0,344.7377373,6.79983088,-99999.0,'11133222,11111222,99999999' 
TABS,ioos:station:TABS:G:1,1997-11-01T05:00:00Z,29.5500,-93.4666,2.0,323.8235541,4.794350842,-99999.0,'11133222,11111222,99999999' 
TABS,ioos:station:TABS:G:1,1997-11-01T05:30:00Z,29.5500,-93.4666,2.0,356.796707,5.368388958,-99999.0,'11133222,11111222,99999999' 
TABS,ioos:station:TABS:G:1,1997-11-01T06:00:00Z,29.5500,-93.4666,2.0,309.5401159,7.728389224,-99999.0,'11133222,11111222,99999999' 
TABS,ioos:station:TABS:G:1,1997-11-01T06:30:00Z,29.5500,-93.4666,2.0,339.4863657,6.363528895,-99999.0,'11133222,11111222,99999999' 
TABS,ioos:station:TABS:G:1,1997-11-01T07:00:00Z,29.5500,-93.4666,2.0,325.3205249,7.065161003,-99999.0,'11133222,11111222,99999999' 
TABS,ioos:station:TABS:G:1,1997-11-01T07:30:00Z,29.5500,-93.4666,2.0,344.8683815,5.707906797,-99999.0,'11133222,11111222,99999999' 
TABS,ioos:station:TABS:G:1,1997-11-01T08:00:00Z,29.5500,-93.4666,2.0,340.1030254,5.700280695,-99999.0,'11133222,11111222,99999999' 
TABS,ioos:station:TABS:G:1,1997-11-01T08:30:00Z,29.5500,-93.4666,2.0,8.813091488,3.916235437,-99999.0,'11133222,11111222,99999999' 
TABS,ioos:station:TABS:G:1,1997-11-01T09:00:00Z,29.5500,-93.4666,2.0,336.5392061,4.872832852,-99999.0,'11133222,11111222,99999999' 
TABS,ioos:station:TABS:G:1,1997-11-01T09:30:00Z,29.5500,-93.4666,2.0,335.8166548,4.735609781,-99999.0,'11133222,11111222,99999999' 
TABS,ioos:station:TABS:G:1,1997-11-01T10:00:00Z,29.5500,-93.4666,2.0,351.908572,6.322950261,-99999.0,'11133222,11111222,99999999' 
TABS,ioos:station:TABS:G:1,1997-11-01T10:30:00Z,29.5500,-93.4666,2.0,323.4092078,5.754068126,-99999.0,'11133222,11111222,99999999' 
TABS,ioos:station:TABS:G:1,1997-11-01T11:00:00Z,29.5500,-93.4666,2.0,43.14395152,3.056304959,-99999.0,'11133222,11111222,99999999' 
TABS,ioos:station:TABS:G:1,1997-11-01T11:30:00Z,29.5500,-93.4666,2.0,10.96805699,3.942004566,-99999.0,'11133222,11111222,99999999' 
TABS,ioos:station:TABS:G:1,1997-11-01T12:00:00Z,29.5500,-93.4666,2.0,30.94123913,4.337199557,-99999.0,'11133222,11111222,99999999' 
TABS,ioos:station:TABS:G:1,1997-11-01T12:30:00Z,29.5500,-93.4666,2.0,17.09249529,4.048826991,-99999.0,'11133222,11111222,99999999' 
TABS,ioos:station:TABS:G:1,1997-11-01T13:00:00Z,29.5500,-93.4666,2.0,72.55856082,5.471562848,-99999.0,'11133222,11111222,99999999' 
TABS,ioos:station:TABS:G:1,1997-11-01T13:30:00Z,29.5500,-93.4666,2.0,11.83236796,3.657717868,-99999.0,'11133222,11111222,99999999' 
TABS,ioos:station:TABS:G:1,1997-11-01T14:00:00Z,29.5500,-93.4666,2.0,24.43094574,3.602568528,-99999.0,'11133222,11111222,99999999' 
TABS,ioos:station:TABS:G:1,1997-11-01T14:30:00Z,29.5500,-93.4666,2.0,358.0115773,4.322603382,-99999.0,'11133222,11111222,99999999' 
TABS,ioos:station:TABS:G:1,1997-11-01T15:00:00Z,29.5500,-93.4666,2.0,329.8434539,2.070193228,-99999.0,'11133222,11111222,99999999' 
TABS,ioos:station:TABS:G:1,1997-11-01T15:30:00Z,29.5500,-93.4666,2.0,340.1904732,3.953985331,-99999.0,'11133222,11111222,99999999' 
TABS,ioos:station:TABS:G:1,1997-11-01T16:00:00Z,29.5500,-93.4666,2.0,43.65957815,4.53379532,-99999.0,'11133222,11111222,99999999' 
TABS,ioos:station:TABS:G:1,1997-11-01T16:30:00Z,29.5500,-93.4666,2.0,315.7696828,7.899094885,-99999.0,'11133222,11111222,99999999' 
TABS,ioos:station:TABS:G:1,1997-11-01T17:00:00Z,29.5500,-93.4666,2.0,335.0666184,7.068840075,-99999.0,'11133222,11111222,99999999' 
TABS,ioos:station:TABS:G:1,1997-11-01T17:30:00Z,29.5500,-93.4666,2.0,329.2174213,8.14793839,-99999.0,'11133222,11111222,99999999' 
TABS,ioos:station:TABS:G:1,1997-11-01T18:00:00Z,29.5500,-93.4666,2.0,358.0454864,8.795117964,-99999.0,'11133222,11111222,99999999' 
TABS,ioos:station:TABS:G:1,1997-11-01T18:30:00Z,29.5500,-93.4666,2.0,0.000210459,7.15,-99999.0,'11133222,11111222,99999999' 
TABS,ioos:station:TABS:G:1,1997-11-01T19:00:00Z,29.5500,-93.4666,2.0,333.4352214,6.99889277,-99999.0,'11133222,11111222,99999999' 
TABS,ioos:station:TABS:G:1,1997-11-01T19:30:00Z,29.5500,-93.4666,2.0,356.4014508,4.779424652,-99999.0,'11133222,11111222,99999999' 
TABS,ioos:station:TABS:G:1,1997-11-01T20:00:00Z,29.5500,-93.4666,2.0,345.2516994,5.852836919,-99999.0,'11133222,11111222,99999999' 
TABS,ioos:station:TABS:G:1,1997-11-01T20:30:00Z,29.5500,-93.4666,2.0,30.62736015,4.671702045,-99999.0,'11133222,11111222,99999999' 
TABS,ioos:station:TABS:G:1,1997-11-01T21:00:00Z,29.5500,-93.4666,2.0,107.012507,5.605283222,-99999.0,'11133222,11111222,99999999' 
TABS,ioos:station:TABS:G:1,1997-11-01T21:30:00Z,29.5500,-93.4666,2.0,165.4196884,11.24203273,-99999.0,'11111222,11111222,99999999' 
TABS,ioos:station:TABS:G:1,1997-11-01T22:00:00Z,29.5500,-93.4666,2.0,202.4324004,14.83238686,-99999.0,'11111222,11111222,99999999' 
TABS,ioos:station:TABS:G:1,1997-11-01T22:30:00Z,29.5500,-93.4666,2.0,222.247028,21.93855282,-99999.0,'11111222,11111222,99999999' 
TABS,ioos:station:TABS:G:1,1997-11-01T23:00:00Z,29.5500,-93.4666,2.0,230.8135052,24.99041816,-99999.0,'11111222,11111222,99999999' 
TABS,ioos:station:TABS:G:1,1997-11-01T23:30:00Z,29.5500,-93.4666,2.0,209.8986215,26.30042015,-99999.0,'11111222,11111222,99999999' 
TABS,ioos:station:TABS:G:1,1997-11-02T00:00:00Z,29.5500,-93.4666,2.0,221.4841328,27.44496311,-99999.0,'11111222,11111222,99999999' 
TABS,ioos:station:TABS:G:1,1997-11-02T00:30:00Z,29.5500,-93.4666,2.0,223.0281799,24.45915984,-99999.0,'11111222,11111222,99999999' 
TABS,ioos:station:TABS:G:1,1997-11-02T01:00:00Z,29.5500,-93.4666,2.0,198.244345,14.27776243,-99999.0,'11111222,11111222,99999999' 
TABS,ioos:station:TABS:G:1,1997-11-02T01:30:00Z,29.5500,-93.4666,2.0,189.195899,10.26189554,-99999.0,'11111222,11111222,99999999' 
TABS,ioos:station:TABS:G:1,1997-11-02T02:00:00Z,29.5500,-93.4666,2.0,186.5266867,9.14930052,-99999.0,'11133222,11111222,99999999' 
TABS,ioos:station:TABS:G:1,1997-11-02T02:30:00Z,29.5500,-93.4666,2.0,191.6729889,9.588310592,-99999.0,'11133222,11111222,99999999' 
TABS,ioos:station:TABS:G:1,1997-11-02T03:00:00Z,29.5500,-93.4666,2.0,217.6570522,17.31763552,-99999.0,'11111222,11111222,99999999' 
TABS,ioos:station:TABS:G:1,1997-11-02T03:30:00Z,29.5500,-93.4666,2.0,224.2562926,15.80516688,-99999.0,'11111222,11111222,99999999' 
TABS,ioos:station:TABS:G:1,1997-11-02T04:00:00Z,29.5500,-93.4666,2.0,213.3660775,7.854680134,-99999.0,'11133222,11111222,99999999' 
TABS,ioos:station:TABS:G:1,1997-11-02T04:30:00Z,29.5500,-93.4666,2.0,228.0494376,13.82230082,-99999.0,'11111222,11111222,99999999' 
TABS,ioos:station:TABS:G:1,1997-11-02T05:00:00Z,29.5500,-93.4666,2.0,229.1830732,12.98880287,-99999.0,'11111222,11111222,99999999' 
TABS,ioos:station:TABS:G:1,1997-11-02T05:30:00Z,29.5500,-93.4666,2.0,218.1872549,10.61080581,-99999.0,'11111222,11111222,99999999' 
TABS,ioos:station:TABS:G:1,1997-11-02T06:00:00Z,29.5500,-93.4666,2.0,225.5384989,11.27885189,-99999.0,'11111222,11111222,99999999' 
TABS,ioos:station:TABS:G:1,1997-11-02T06:30:00Z,29.5500,-93.4666,2.0,219.5937378,10.05736546,-99999.0,'11111222,11111222,99999999' 
TABS,ioos:station:TABS:G:1,1997-11-02T07:00:00Z,29.5500,-93.4666,2.0,210.2169928,9.477816204,-99999.0,'11133222,11111222,99999999' 
TABS,ioos:station:TABS:G:1,1997-11-02T07:30:00Z,29.5500,-93.4666,2.0,159.1834505,3.348581789,-99999.0,'11133222,11111222,99999999' 
TABS,ioos:station:TABS:G:1,1997-11-02T08:00:00Z,29.5500,-93.4666,2.0,163.3711672,3.110064308,-99999.0,'11133222,11111222,99999999' 
TABS,ioos:station:TABS:G:1,1997-11-02T08:30:00Z,29.5500,-93.4666,2.0,90.0,4.62,-99999.0,'11133222,11111222,99999999' 
TABS,ioos:station:TABS:G:1,1997-11-02T09:00:00Z,29.5500,-93.4666,2.0,165.1950895,5.244091914,-99999.0,'11133222,11111222,99999999' 
TABS,ioos:station:TABS:G:1,1997-11-02T09:30:00Z,29.5500,-93.4666,2.0,145.2970192,4.707366567,-99999.0,'11133222,11111222,99999999' 
TABS,ioos:station:TABS:G:1,1997-11-02T10:00:00Z,29.5500,-93.4666,2.0,164.1870851,7.119417111,-99999.0,'11133222,11111222,99999999' 
TABS,ioos:station:TABS:G:1,1997-11-02T10:30:00Z,29.5500,-93.4666,2.0,130.7320115,5.70094729,-99999.0,'11133222,11111222,99999999' 
TABS,ioos:station:TABS:G:1,1997-11-02T11:00:00Z,29.5500,-93.4666,2.0,158.4608991,6.891226306,-99999.0,'11133222,11111222,99999999' 
TABS,ioos:station:TABS:G:1,1997-11-02T11:30:00Z,29.5500,-93.4666,2.0,170.8720262,8.446963952,-99999.0,'11133222,11111222,99999999' 
TABS,ioos:station:TABS:G:1,1997-11-02T12:00:00Z,29.5500,-93.4666,2.0,155.8047442,8.003024428,-99999.0,'11133222,11111222,99999999' 
TABS,ioos:station:TABS:G:1,1997-11-02T12:30:00Z,29.5500,-93.4666,2.0,162.7068385,9.520346632,-99999.0,'11133222,11111222,99999999' 
TABS,ioos:station:TABS:G:1,1997-11-02T13:00:00Z,29.5500,-93.4666,2.0,138.6459198,8.339526365,-99999.0,'11133222,11111222,99999999' 
TABS,ioos:station:TABS:G:1,1997-11-02T13:30:00Z,29.5500,-93.4666,2.0,130.386759,7.824736417,-99999.0,'11133222,11111222,99999999' 
TABS,ioos:station:TABS:G:1,1997-11-02T14:00:00Z,29.5500,-93.4666,2.0,110.3138163,8.583874417,-99999.0,'11133222,11111222,99999999' 
TABS,ioos:station:TABS:G:1,1997-11-02T14:30:00Z,29.5500,-93.4666,2.0,105.4902969,7.263855725,-99999.0,'11133222,11111222,99999999' 
TABS,ioos:station:TABS:G:1,1997-11-02T15:00:00Z,29.5500,-93.4666,2.0,91.34052708,6.41175483,-99999.0,'11133222,11111222,99999999' 
TABS,ioos:station:TABS:G:1,1997-11-02T15:30:00Z,29.5500,-93.4666,2.0,120.2829445,6.206971887,-99999.0,'11133222,11111222,99999999' 
TABS,ioos:station:TABS:G:1,1997-11-02T16:00:00Z,29.5500,-93.4666,2.0,193.2850848,16.84069476,-99999.0,'11111222,11111222,99999999' 
TABS,ioos:station:TABS:G:1,1997-11-02T16:30:00Z,29.5500,-93.4666,2.0,193.0904901,11.17028648,-99999.0,'11111222,11111222,99999999' 
TABS,ioos:station:TABS:G:1,1997-11-02T17:00:00Z,29.5500,-93.4666,2.0,197.0283743,9.663669075,-99999.0,'11133222,11111222,99999999' 
TABS,ioos:station:TABS:G:1,1997-11-02T17:30:00Z,29.5500,-93.4666,2.0,350.4860122,3.629931129,-99999.0,'11133222,11111222,99999999' 
TABS,ioos:station:TABS:G:1,1997-11-02T18:00:00Z,29.5500,-93.4666,2.0,171.4126413,3.013784996,-99999.0,'11133222,11111222,99999999' 
TABS,ioos:station:TABS:G:1,1997-11-02T18:30:00Z,29.5500,-93.4666,2.0,52.51915404,3.1881813,-99999.0,'11133222,11111222,99999999' 
TABS,ioos:station:TABS:G:1,1997-11-02T19:00:00Z,29.5500,-93.4666,2.0,192.2390791,10.51909217,-99999.0,'11111222,11111222,99999999' 
TABS,ioos:station:TABS:G:1,1997-11-02T19:30:00Z,29.5500,-93.4666,2.0,194.7167398,8.777983823,-99999.0,'11133222,11111222,99999999' 
TABS,ioos:station:TABS:G:1,1997-11-02T20:00:00Z,29.5500,-93.4666,2.0,187.2366946,8.255767681,-99999.0,'11133222,11111222,99999999' 
TABS,ioos:station:TABS:G:1,1997-11-02T20:30:00Z,29.5500,-93.4666,2.0,201.9382187,13.97175723,-99999.0,'11111222,11111222,99999999' 
TABS,ioos:station:TABS:G:1,1997-11-02T21:00:00Z,29.5500,-93.4666,2.0,194.9577813,6.934990988,-99999.0,'11133222,11111222,99999999' 
TABS,ioos:station:TABS:G:1,1997-11-02T21:30:00Z,29.5500,-93.4666,2.0,197.6619008,10.31628809,-99999.0,'11111222,11111222,99999999' 
TABS,ioos:station:TABS:G:1,1997-11-02T22:00:00Z,29.5500,-93.4666,2.0,183.9046979,8.810454018,-99999.0,'11133222,11111222,99999999' 
TABS,ioos:station:TABS:G:1,1997-11-02T22:30:00Z,29.5500,-93.4666,2.0,166.8140591,7.189547969,-99999.0,'11133222,11111222,99999999' 
TABS,ioos:station:TABS:G:1,1997-11-02T23:00:00Z,29.5500,-93.4666,2.0,154.2384943,4.463630809,-99999.0,'11133222,11111222,99999999' 
TABS,ioos:station:TABS:G:1,1997-11-02T23:30:00Z,29.5500,-93.4666,2.0,165.5893559,10.76881145,-99999.0,'11111222,11111222,99999999' 
TABS,ioos:station:TABS:G:1,1997-11-03T00:00:00Z,29.5500,-93.4666,2.0,172.4799046,13.67763503,-99999.0,'11111222,11111222,99999999' 
TABS,ioos:station:TABS:G:1,1997-11-03T00:30:00Z,29.5500,-93.4666,2.0,175.8524936,18.52851856,-99999.0,'11111222,11111222,99999999' 
TABS,ioos:station:TABS:G:1,1997-11-03T01:00:00Z,29.5500,-93.4666,2.0,176.4018979,16.57266424,-99999.0,'11111222,11111222,99999999' 
TABS,ioos:station:TABS:G:1,1997-11-03T01:30:00Z,29.5500,-93.4666,2.0,167.2835626,15.58219818,-99999.0,'11111222,11111222,99999999' 
TABS,ioos:station:TABS:G:1,1997-11-03T02:00:00Z,29.5500,-93.4666,2.0,176.2851549,22.99831733,-99999.0,'11111222,11111222,99999999' 
TABS,ioos:station:TABS:G:1,1997-11-03T02:30:00Z,29.5500,-93.4666,2.0,171.3653039,21.84761772,-99999.0,'11111222,11111222,99999999' 
TABS,ioos:station:TABS:G:1,1997-11-03T03:00:00Z,29.5500,-93.4666,2.0,172.198203,21.95319794,-99999.0,'11111222,11111222,99999999' 
TABS,ioos:station:TABS:G:1,1997-11-03T03:30:00Z,29.5500,-93.4666,2.0,155.3032555,14.26475377,-99999.0,'11111222,11111222,99999999' 
TABS,ioos:station:TABS:G:1,1997-11-03T04:00:00Z,29.5500,-93.4666,2.0,163.5749806,17.40007184,-99999.0,'11111222,11111222,99999999' 
TABS,ioos:station:TABS:G:1,1997-11-03T04:30:00Z,29.5500,-93.4666,2.0,146.8572706,13.35224326,-99999.0,'11111222,11111222,99999999' 
TABS,ioos:station:TABS:G:1,1997-11-03T05:00:00Z,29.5500,-93.4666,2.0,141.1456646,14.72883227,-99999.0,'11111222,11111222,99999999' 
TABS,ioos:station:TABS:G:1,1997-11-03T05:30:00Z,29.5500,-93.4666,2.0,124.4010257,13.18623904,-99999.0,'11111222,11111222,99999999' 
TABS,ioos:station:TABS:G:1,1997-11-03T06:00:00Z,29.5500,-93.4666,2.0,150.7267659,14.00895785,-99999.0,'11111222,11111222,99999999' 
TABS,ioos:station:TABS:G:1,1997-11-03T06:30:00Z,29.5500,-93.4666,2.0,147.8028719,14.26341123,-99999.0,'11111222,11111222,99999999' 
TABS,ioos:station:TABS:G:1,1997-11-03T07:00:00Z,29.5500,-93.4666,2.0,121.0874326,12.70464482,-99999.0,'11111222,11111222,99999999' 
TABS,ioos:station:TABS:G:1,1997-11-03T07:30:00Z,29.5500,-93.4666,2.0,109.0592021,12.77003524,-99999.0,'11111222,11111222,99999999' 
TABS,ioos:station:TABS:G:1,1997-11-03T08:00:00Z,29.5500,-93.4666,2.0,113.6735086,11.87970117,-99999.0,'11111222,11111222,99999999' 
TABS,ioos:station:TABS:G:1,1997-11-03T08:30:00Z,29.5500,-93.4666,2.0,117.1388828,13.39471911,-99999.0,'11111222,11111222,99999999' 
TABS,ioos:station:TABS:G:1,1997-11-03T09:00:00Z,29.5500,-93.4666,2.0,112.7888896,16.16160883,-99999.0,'11111222,11111222,99999999' 
TABS,ioos:station:TABS:G:1,1997-11-03T09:30:00Z,29.5500,-93.4666,2.0,109.5185792,17.38931281,-99999.0,'11111222,11111222,99999999' 
TABS,ioos:station:TABS:G:1,1997-11-03T10:00:00Z,29.5500,-93.4666,2.0,115.2833244,17.79460873,-99999.0,'11111222,11111222,99999999' 
TABS,ioos:station:TABS:G:1,1997-11-03T10:30:00Z,29.5500,-93.4666,2.0,105.7628475,18.11108224,-99999.0,'11111222,11111222,99999999' 
TABS,ioos:station:TABS:G:1,1997-11-03T11:00:00Z,29.5500,-93.4666,2.0,94.43419108,17.33187814,-99999.0,'11111222,11111222,99999999' 
TABS,ioos:station:TABS:G:1,1997-11-03T11:30:00Z,29.5500,-93.4666,2.0,106.2369065,19.70600162,-99999.0,'11111222,11111222,99999999' 
TABS,ioos:station:TABS:G:1,1997-11-03T12:00:00Z,29.5500,-93.4666,2.0,96.99308064,18.31625781,-99999.0,'11111222,11111222,99999999' 
TABS,ioos:station:TABS:G:1,1997-11-03T12:30:00Z,29.5500,-93.4666,2.0,95.67570367,19.6161668,-99999.0,'11111222,11111222,99999999' 
TABS,ioos:station:TABS:G:1,1997-11-03T13:00:00Z,29.5500,-93.4666,2.0,98.53343188,21.09351796,-99999.0,'11111222,11111222,99999999' 
TABS,ioos:station:TABS:G:1,1997-11-03T13:30:00Z,29.5500,-93.4666,2.0,106.2622171,22.35440001,-99999.0,'11111222,11111222,99999999' 
TABS,ioos:station:TABS:G:1,1997-11-03T14:00:00Z,29.5500,-93.4666,2.0,103.6607616,21.46728907,-99999.0,'11111222,11111222,99999999' 
TABS,ioos:station:TABS:G:1,1997-11-03T14:30:00Z,29.5500,-93.4666,2.0,104.4970913,22.01082007,-99999.0,'11111222,11111222,99999999' 
TABS,ioos:station:TABS:G:1,1997-11-03T15:00:00Z,29.5500,-93.4666,2.0,98.87315115,21.26448918,-99999.0,'11111222,11111222,99999999' 
TABS,ioos:station:TABS:G:1,1997-11-03T15:30:00Z,29.5500,-93.4666,2.0,90.4273589,20.11055942,-99999.0,'11111222,11111222,99999999' 
TABS,ioos:station:TABS:G:1,1997-11-03T16:00:00Z,29.5500,-93.4666,2.0,82.44276978,19.23709438,-99999.0,'11111222,11111222,99999999' 
TABS,ioos:station:TABS:G:1,1997-11-03T16:30:00Z,29.5500,-93.4666,2.0,74.65858507,17.46224499,-99999.0,'11111222,11111222,99999999' 
TABS,ioos:station:TABS:G:1,1997-11-03T17:00:00Z,29.5500,-93.4666,2.0,65.78830231,16.3370744,-99999.0,'11111222,11111222,99999999' 
TABS,ioos:station:TABS:G:1,1997-11-03T17:30:00Z,29.5500,-93.4666,2.0,67.07959575,15.68867745,-99999.0,'11111222,11111222,99999999' 
TABS,ioos:station:TABS:G:1,1997-11-03T18:00:00Z,29.5500,-93.4666,2.0,62.43557268,15.12706515,-99999.0,'11111222,11111222,99999999' 
TABS,ioos:station:TABS:G:1,1997-11-03T18:30:00Z,29.5500,-93.4666,2.0,61.93423197,15.19705893,-99999.0,'11111222,11111222,99999999' 
TABS,ioos:station:TABS:G:1,1997-11-03T19:00:00Z,29.5500,-93.4666,2.0,55.16824621,16.70256567,-99999.0,'11111222,11111222,99999999' 
TABS,ioos:station:TABS:G:1,1997-11-03T19:30:00Z,29.5500,-93.4666,2.0,58.23196272,16.12588602,-99999.0,'11111222,11111222,99999999' 
TABS,ioos:station:TABS:G:1,1997-11-03T20:00:00Z,29.5500,-93.4666,2.0,63.24777094,20.52721364,-99999.0,'11111222,11111222,99999999' 
TABS,ioos:station:TABS:G:1,1997-11-03T20:30:00Z,29.5500,-93.4666,2.0,63.4466635,21.98949295,-99999.0,'11111222,11111222,99999999' 
TABS,ioos:station:TABS:G:1,1997-11-03T21:00:00Z,29.5500,-93.4666,2.0,46.94378164,18.76326731,-99999.0,'11111222,11111222,99999999' 
TABS,ioos:station:TABS:G:1,1997-11-03T21:30:00Z,29.5500,-93.4666,2.0,40.95790257,17.95568155,-99999.0,'11111222,11111222,99999999' 
TABS,ioos:station:TABS:G:1,1997-11-03T22:00:00Z,29.5500,-93.4666,2.0,42.03187814,16.24990154,-99999.0,'11111222,11111222,99999999' 
TABS,ioos:station:TABS:G:1,1997-11-03T22:30:00Z,29.5500,-93.4666,2.0,45.66390842,17.70007062,-99999.0,'11111222,11111222,99999999' 
TABS,ioos:station:TABS:G:1,1997-11-03T23:00:00Z,29.5500,-93.4666,2.0,61.96663652,15.53235655,-99999.0,'11111222,11111222,99999999' 
TABS,ioos:station:TABS:G:1,1997-11-03T23:30:00Z,29.5500,-93.4666,2.0,58.51034973,16.25360575,-99999.0,'11111222,11111222,99999999' 
TABS,ioos:station:TABS:G:1,1997-11-04T00:00:00Z,29.5500,-93.4666,2.0,67.02081527,20.23578266,-99999.0,'11111222,11111222,99999999' 
TABS,ioos:station:TABS:G:1,1997-11-04T00:30:00Z,29.5500,-93.4666,2.0,71.68454299,22.75263721,-99999.0,'11111222,11111222,99999999' 
TABS,ioos:station:TABS:G:1,1997-11-04T01:00:00Z,29.5500,-93.4666,2.0,76.70105938,25.25732567,-99999.0,'11111222,11111222,99999999' 
TABS,ioos:station:TABS:G:1,1997-11-04T01:30:00Z,29.5500,-93.4666,2.0,92.34493274,29.0843549,-99999.0,'11111222,11111222,99999999' 
TABS,ioos:station:TABS:G:1,1997-11-04T02:00:00Z,29.5500,-93.4666,2.0,86.57280264,24.92457623,-99999.0,'11111222,11111222,99999999' 
TABS,ioos:station:TABS:G:1,1997-11-04T02:30:00Z,29.5500,-93.4666,2.0,100.5859986,32.4421593,-99999.0,'11111222,11111222,99999999' 
TABS,ioos:station:TABS:G:1,1997-11-04T03:00:00Z,29.5500,-93.4666,2.0,105.7394288,30.19204697,-99999.0,'11111222,11111222,99999999' 
TABS,ioos:station:TABS:G:1,1997-11-04T03:30:00Z,29.5500,-93.4666,2.0,105.3077862,27.65101987,-99999.0,'11111222,11111222,99999999' 
TABS,ioos:station:TABS:G:1,1997-11-04T04:00:00Z,29.5500,-93.4666,2.0,108.4411086,29.20995892,-99999.0,'11111222,11111222,99999999' 
TABS,ioos:station:TABS:G:1,1997-11-04T04:30:00Z,29.5500,-93.4666,2.0,106.377738,27.48525787,-99999.0,'11111222,11111222,99999999' 
TABS,ioos:station:TABS:G:1,1997-11-04T05:00:00Z,29.5500,-93.4666,2.0,104.4876341,26.78161496,-99999.0,'11111222,11111222,99999999' 
TABS,ioos:station:TABS:G:1,1997-11-04T05:30:00Z,29.5500,-93.4666,2.0,107.0673649,27.4279219,-99999.0,'11111222,11111222,99999999' 
TABS,ioos:station:TABS:G:1,1997-11-04T06:00:00Z,29.5500,-93.4666,2.0,104.686049,25.87536473,-99999.0,'11111222,11111222,99999999' 
TABS,ioos:station:TABS:G:1,1997-11-04T06:30:00Z,29.5500,-93.4666,2.0,106.7012804,26.44558375,-99999.0,'11111222,11111222,99999999' 
TABS,ioos:station:TABS:G:1,1997-11-04T07:00:00Z,29.5500,-93.4666,2.0,102.7048966,25.05341693,-99999.0,'11111222,11111222,99999999' 
TABS,ioos:station:TABS:G:1,1997-11-04T07:30:00Z,29.5500,-93.4666,2.0,99.38795456,22.80544672,-99999.0,'11111222,11111222,99999999' 
TABS,ioos:station:TABS:G:1,1997-11-04T08:00:00Z,29.5500,-93.4666,2.0,100.5845484,21.06848357,-99999.0,'11111222,11111222,99999999' 
TABS,ioos:station:TABS:G:1,1997-11-04T08:30:00Z,29.5500,-93.4666,2.0,105.6486923,20.42716329,-99999.0,'11111222,11111222,99999999' 
TABS,ioos:station:TABS:G:1,1997-11-04T09:00:00Z,29.5500,-93.4666,2.0,113.3690585,20.29481214,-99999.0,'11111222,11111222,99999999' 
TABS,ioos:station:TABS:G:1,1997-11-04T09:30:00Z,29.5500,-93.4666,2.0,126.8631243,17.13600012,-99999.0,'11111222,11111222,99999999' 
TABS,ioos:station:TABS:G:1,1997-11-04T10:00:00Z,29.5500,-93.4666,2.0,130.5401129,16.27738615,-99999.0,'11111222,11111222,99999999' 
TABS,ioos:station:TABS:G:1,1997-11-04T10:30:00Z,29.5500,-93.4666,2.0,139.9657877,18.29789605,-99999.0,'11111222,11111222,99999999' 
TABS,ioos:station:TABS:G:1,1997-11-04T11:00:00Z,29.5500,-93.4666,2.0,172.126487,9.782213451,-99999.0,'11133222,11111222,99999999' 
TABS,ioos:station:TABS:G:1,1997-11-04T11:30:00Z,29.5500,-93.4666,2.0,178.3755845,10.58425245,-99999.0,'11111222,11111222,99999999' 
TABS,ioos:station:TABS:G:1,1997-11-04T12:00:00Z,29.5500,-93.4666,2.0,184.4949186,9.56943572,-99999.0,'11133222,11111222,99999999' 
TABS,ioos:station:TABS:G:1,1997-11-04T12:30:00Z,29.5500,-93.4666,2.0,179.2505431,11.47098078,-99999.0,'11111222,11111222,99999999' 
TABS,ioos:station:TABS:G:1,1997-11-04T13:00:00Z,29.5500,-93.4666,2.0,186.7507207,11.39903505,-99999.0,'11111222,11111222,99999999' 
TABS,ioos:station:TABS:G:1,1997-11-04T13:30:00Z,29.5500,-93.4666,2.0,191.3308223,10.63733989,-99999.0,'11111222,11111222,99999999' 
TABS,ioos:station:TABS:G:1,1997-11-04T14:00:00Z,29.5500,-93.4666,2.0,200.6731249,9.715606003,-99999.0,'11133222,11111222,99999999' 
TABS,ioos:station:TABS:G:1,1997-11-04T14:30:00Z,29.5500,-93.4666,2.0,223.4402969,7.795203654,-99999.0,'11133222,11111222,99999999' 
TABS,ioos:station:TABS:G:1,1997-11-04T15:00:00Z,29.5500,-93.4666,2.0,215.6196267,9.718312611,-99999.0,'11133222,11111222,99999999' 
TABS,ioos:station:TABS:G:1,1997-11-04T15:30:00Z,29.5500,-93.4666,2.0,242.1387317,5.734744981,-99999.0,'11133222,11111222,99999999' 
TABS,ioos:station:TABS:G:1,1997-11-04T16:00:00Z,29.5500,-93.4666,2.0,284.0366316,5.524961538,-99999.0,'11133222,11111222,99999999' 
TABS,ioos:station:TABS:G:1,1997-11-04T16:30:00Z,29.5500,-93.4666,2.0,266.883111,5.518160926,-99999.0,'11133222,11111222,99999999' 
TABS,ioos:station:TABS:G:1,1997-11-04T17:00:00Z,29.5500,-93.4666,2.0,319.1152152,5.912512156,-99999.0,'11133222,11111222,99999999' 
TABS,ioos:station:TABS:G:1,1997-11-04T17:30:00Z,29.5500,-93.4666,2.0,296.56541,5.99266218,-99999.0,'11133222,11111222,99999999' 
TABS,ioos:station:TABS:G:1,1997-11-04T18:00:00Z,29.5500,-93.4666,2.0,318.8912697,7.711095901,-99999.0,'11133222,11111222,99999999' 